Tracking 28052 objects as of 25-Sep-2023
HD Live streaming from Space Station
objects crossing your sky now

STARLINK-2620

Track STARLINK-2620 now!
10-day predictions
STARLINK-2620 is classified as:


NORAD ID: 48453
Int'l Code: 2021-040AB
Perigee: 553.1 km
Apogee: 555.3 km
Inclination: 53.1 °
Period: 95.6 minutes
Semi major axis: 6925 km
RCS: Unknown
Launch date: May 9, 2021
Source: United States (US)
Launch site: AIR FORCE EASTERN TEST RANGE (AFETR)
Your satellite tracking list
Your tracking list is empty




NASA's NSSDC Master Catalog

Two Line Element Set (TLE):
1 48453U 21040AB  23267.43167500  .00024262  00000-0  16395-2 0  9999
2 48453  53.0527 249.5676 0001605  82.1619 277.9552 15.06457846131396
Source of the keplerian elements: AFSPC